Year,Month,Day,Hour,Minute,Value (Times are PST for temperature in C)
2017,07,10,00,00,10.60
2017,07,10,00,01,10.60
2017,07,10,00,02,10.60
2017,07,10,00,03,10.60
2017,07,10,00,04,10.60
2017,07,10,00,05,10.60
2017,07,10,00,06,10.60
2017,07,10,00,07,10.60
2017,07,10,00,08,10.60
2017,07,10,00,09,10.60
2017,07,10,00,10,10.60
2017,07,10,00,11,10.60
2017,07,10,00,12,10.50
2017,07,10,00,13,10.50
2017,07,10,00,14,10.50
2017,07,10,00,15,10.40
2017,07,10,00,16,10.40
2017,07,10,00,17,10.40
2017,07,10,00,18,10.40
2017,07,10,00,19,10.40
2017,07,10,00,20,10.40
2017,07,10,00,21,10.30
2017,07,10,00,22,10.30
2017,07,10,00,23,10.30
2017,07,10,00,24,10.30
2017,07,10,00,25,10.30
2017,07,10,00,26,10.20
2017,07,10,00,27,10.20
2017,07,10,00,28,10.20
2017,07,10,00,29,10.20
2017,07,10,00,30,10.20
2017,07,10,00,31,10.20
2017,07,10,00,32,10.20
2017,07,10,00,33,10.20
2017,07,10,00,34,10.20
2017,07,10,00,35,10.20
2017,07,10,00,36,10.20
2017,07,10,00,37,10.20
2017,07,10,00,38,10.20
2017,07,10,00,39,10.20
2017,07,10,00,40,10.10
2017,07,10,00,41,10.10
2017,07,10,00,42,10.10
2017,07,10,00,43,10.10
2017,07,10,00,44,10.10
2017,07,10,00,45,10.10
2017,07,10,00,46,10.00
2017,07,10,00,47,10.00
2017,07,10,00,48,10.00
2017,07,10,00,49,10.00
2017,07,10,00,50,9.90
2017,07,10,00,51,9.90
2017,07,10,00,52,9.90
2017,07,10,00,53,9.90
2017,07,10,00,54,9.90
2017,07,10,00,55,10.00
2017,07,10,00,56,10.00
2017,07,10,00,57,10.00
2017,07,10,00,58,10.00
2017,07,10,00,59,10.00
2017,07,10,01,00,10.00
2017,07,10,01,01,10.00
2017,07,10,01,02,10.00
2017,07,10,01,03,10.00
2017,07,10,01,04,10.00
2017,07,10,01,05,10.00
2017,07,10,01,06,9.90
2017,07,10,01,07,9.90
2017,07,10,01,08,9.90
2017,07,10,01,09,9.90
2017,07,10,01,10,9.90
2017,07,10,01,11,9.90
2017,07,10,01,12,9.90
2017,07,10,01,13,9.90
2017,07,10,01,14,9.90
2017,07,10,01,15,9.80
2017,07,10,01,16,9.80
2017,07,10,01,17,9.80
2017,07,10,01,18,9.80
2017,07,10,01,19,9.80
2017,07,10,01,20,9.80
2017,07,10,01,21,9.70
2017,07,10,01,22,9.70
2017,07,10,01,23,9.70
2017,07,10,01,24,9.70
2017,07,10,01,25,9.70
2017,07,10,01,26,9.70
2017,07,10,01,27,9.70
2017,07,10,01,28,9.70
2017,07,10,01,29,9.70
2017,07,10,01,30,9.70
2017,07,10,01,31,9.70
2017,07,10,01,32,9.70
2017,07,10,01,33,9.70
2017,07,10,01,34,9.70
2017,07,10,01,35,9.70
2017,07,10,01,36,9.70
2017,07,10,01,37,9.70
2017,07,10,01,38,9.70
2017,07,10,01,39,9.70
2017,07,10,01,40,9.70
2017,07,10,01,41,9.70
2017,07,10,01,42,9.70
2017,07,10,01,43,9.70
2017,07,10,01,44,9.70
2017,07,10,01,45,9.70
2017,07,10,01,46,9.70
2017,07,10,01,47,9.70
2017,07,10,01,48,9.70
2017,07,10,01,49,9.70
2017,07,10,01,50,9.70
2017,07,10,01,51,9.70
2017,07,10,01,52,9.70
2017,07,10,01,53,9.70
2017,07,10,01,54,9.70
2017,07,10,01,55,9.70
2017,07,10,01,56,9.70
2017,07,10,01,57,9.70
2017,07,10,01,58,9.70
2017,07,10,01,59,9.70
2017,07,10,02,00,9.80
2017,07,10,02,01,9.80
2017,07,10,02,02,9.80
2017,07,10,02,03,9.80
2017,07,10,02,04,9.80
2017,07,10,02,05,9.80
2017,07,10,02,06,9.70
2017,07,10,02,07,9.70
2017,07,10,02,08,9.70
2017,07,10,02,09,9.70
2017,07,10,02,10,9.70
2017,07,10,02,11,9.70
2017,07,10,02,12,9.60
2017,07,10,02,13,9.60
2017,07,10,02,14,9.60
2017,07,10,02,15,9.60
2017,07,10,02,16,9.60
2017,07,10,02,17,9.60
2017,07,10,02,18,9.60
2017,07,10,02,19,9.60
2017,07,10,02,20,9.50
2017,07,10,02,21,9.50
2017,07,10,02,22,9.50
2017,07,10,02,23,9.50
2017,07,10,02,24,9.40
2017,07,10,02,25,9.40
2017,07,10,02,26,9.40
2017,07,10,02,27,9.40
2017,07,10,02,28,9.40
2017,07,10,02,29,9.40
2017,07,10,02,30,9.40
2017,07,10,02,31,9.40
2017,07,10,02,32,9.40
2017,07,10,02,33,9.30
2017,07,10,02,34,9.30
2017,07,10,02,35,9.30
2017,07,10,02,36,9.30
2017,07,10,02,37,9.30
2017,07,10,02,38,9.30
2017,07,10,02,39,9.30
2017,07,10,02,40,9.30
2017,07,10,02,41,9.30
2017,07,10,02,42,9.30
2017,07,10,02,43,9.30
2017,07,10,02,44,9.30
2017,07,10,02,45,9.30
2017,07,10,02,46,9.20
2017,07,10,02,47,9.20
2017,07,10,02,48,9.20
2017,07,10,02,49,9.20
2017,07,10,02,50,9.20
2017,07,10,02,51,9.20
2017,07,10,02,52,9.20
2017,07,10,02,53,9.30
2017,07,10,02,54,9.30
2017,07,10,02,55,9.20
2017,07,10,02,56,9.20
2017,07,10,02,57,9.20
2017,07,10,02,58,9.20
2017,07,10,02,59,9.20
2017,07,10,03,00,9.20
2017,07,10,03,01,9.10
2017,07,10,03,02,9.10
2017,07,10,03,03,9.10
2017,07,10,03,04,9.10
2017,07,10,03,05,9.10
2017,07,10,03,06,9.10
2017,07,10,03,07,9.10
2017,07,10,03,08,9.10
2017,07,10,03,09,9.10
2017,07,10,03,10,9.10
2017,07,10,03,11,9.10
2017,07,10,03,12,9.10
2017,07,10,03,13,9.10
2017,07,10,03,14,9.10
2017,07,10,03,15,9.10
2017,07,10,03,16,9.10
2017,07,10,03,17,9.10
2017,07,10,03,18,9.10
2017,07,10,03,19,9.10
2017,07,10,03,20,9.10
2017,07,10,03,21,9.10
2017,07,10,03,22,9.10
2017,07,10,03,23,9.10
2017,07,10,03,24,9.00
2017,07,10,03,25,9.00
2017,07,10,03,26,9.00
2017,07,10,03,27,9.00
2017,07,10,03,28,8.90
2017,07,10,03,29,8.90
2017,07,10,03,30,8.90
2017,07,10,03,31,8.90
2017,07,10,03,32,9.00
2017,07,10,03,33,9.00
2017,07,10,03,34,9.00
2017,07,10,03,35,9.00
2017,07,10,03,36,9.00
2017,07,10,03,37,9.00
2017,07,10,03,38,9.00
2017,07,10,03,39,9.00
2017,07,10,03,40,9.00
2017,07,10,03,41,9.00
2017,07,10,03,42,9.00
2017,07,10,03,43,8.90
2017,07,10,03,44,9.00
2017,07,10,03,45,8.90
2017,07,10,03,46,8.90
2017,07,10,03,47,8.90
2017,07,10,03,48,8.90
2017,07,10,03,49,8.90
2017,07,10,03,50,8.90
2017,07,10,03,51,8.90
2017,07,10,03,52,8.90
2017,07,10,03,53,8.90
2017,07,10,03,54,8.90
2017,07,10,03,55,8.90
2017,07,10,03,56,8.90
2017,07,10,03,57,8.90
2017,07,10,03,58,8.90
2017,07,10,03,59,8.90
2017,07,10,04,00,8.90
2017,07,10,04,01,8.90
2017,07,10,04,02,8.90
2017,07,10,04,03,8.90
2017,07,10,04,04,8.90
2017,07,10,04,05,8.90
2017,07,10,04,06,8.90
2017,07,10,04,07,8.90
2017,07,10,04,08,8.90
2017,07,10,04,09,8.90
2017,07,10,04,10,8.90
2017,07,10,04,11,8.90
2017,07,10,04,12,8.90
2017,07,10,04,13,9.00
2017,07,10,04,14,9.00
2017,07,10,04,15,9.00
2017,07,10,04,16,9.00
2017,07,10,04,17,9.10
2017,07,10,04,18,9.10
2017,07,10,04,19,9.10
2017,07,10,04,20,9.10
2017,07,10,04,21,9.10
2017,07,10,04,22,9.10
2017,07,10,04,23,9.20
2017,07,10,04,24,9.20
2017,07,10,04,25,9.20
2017,07,10,04,26,9.20
2017,07,10,04,27,9.20
2017,07,10,04,28,9.20
2017,07,10,04,29,9.20
2017,07,10,04,30,9.20
2017,07,10,04,31,9.20
2017,07,10,04,32,9.20
2017,07,10,04,33,9.30
2017,07,10,04,34,9.30
2017,07,10,04,35,9.30
2017,07,10,04,36,9.30
2017,07,10,04,37,9.40
2017,07,10,04,38,9.40
2017,07,10,04,39,9.40
2017,07,10,04,40,9.40
2017,07,10,04,41,9.40
2017,07,10,04,42,9.40
2017,07,10,04,43,9.40
2017,07,10,04,44,9.40
2017,07,10,04,45,9.50
2017,07,10,04,46,9.50
2017,07,10,04,47,9.50
2017,07,10,04,48,9.50
2017,07,10,04,49,9.50
2017,07,10,04,50,9.50
2017,07,10,04,51,9.50
2017,07,10,04,52,9.50
2017,07,10,04,53,9.50
2017,07,10,04,54,9.50
2017,07,10,04,55,9.50
2017,07,10,04,56,9.50
2017,07,10,04,57,9.50
2017,07,10,04,58,9.60
2017,07,10,04,59,9.60
2017,07,10,05,00,9.60
2017,07,10,05,01,9.60
2017,07,10,05,02,9.60
2017,07,10,05,03,9.60
2017,07,10,05,04,9.60
2017,07,10,05,05,9.60
2017,07,10,05,06,9.60
2017,07,10,05,07,9.60
2017,07,10,05,08,9.70
2017,07,10,05,09,9.70
2017,07,10,05,10,9.70
2017,07,10,05,11,9.70
2017,07,10,05,12,9.80
2017,07,10,05,13,9.80
2017,07,10,05,14,9.80
2017,07,10,05,15,9.80
2017,07,10,05,16,9.90
2017,07,10,05,17,9.90
2017,07,10,05,18,9.90
2017,07,10,05,19,9.90
2017,07,10,05,20,9.90
2017,07,10,05,21,9.90
2017,07,10,05,22,9.90
2017,07,10,05,23,9.90
2017,07,10,05,24,9.90
2017,07,10,05,25,10.00
2017,07,10,05,26,10.00
2017,07,10,05,27,10.00
2017,07,10,05,28,10.00
2017,07,10,05,29,10.00
2017,07,10,05,30,10.00
2017,07,10,05,31,9.90
2017,07,10,05,32,10.00
2017,07,10,05,33,9.90
2017,07,10,05,34,10.00
2017,07,10,05,35,9.90
2017,07,10,05,36,9.90
2017,07,10,05,37,9.90
2017,07,10,05,38,9.90
2017,07,10,05,39,9.90
2017,07,10,05,40,9.90
2017,07,10,05,41,9.90
2017,07,10,05,42,9.90
2017,07,10,05,43,9.90
2017,07,10,05,44,9.90
2017,07,10,05,45,10.00
2017,07,10,05,46,10.00
2017,07,10,05,47,10.00
2017,07,10,05,48,10.00
2017,07,10,05,49,10.00
2017,07,10,05,50,10.00
2017,07,10,05,51,10.00
2017,07,10,05,52,10.00
2017,07,10,05,53,10.00
2017,07,10,05,54,10.00
2017,07,10,05,55,10.00
2017,07,10,05,56,10.00
2017,07,10,05,57,10.00
2017,07,10,05,58,10.00
2017,07,10,05,59,10.00
2017,07,10,06,00,10.00
2017,07,10,06,01,10.00
2017,07,10,06,02,10.00
2017,07,10,06,03,9.90
2017,07,10,06,04,9.90
2017,07,10,06,05,9.90
2017,07,10,06,06,9.90
2017,07,10,06,07,9.90
2017,07,10,06,08,9.90
2017,07,10,06,09,9.90
2017,07,10,06,10,9.90
2017,07,10,06,11,9.90
2017,07,10,06,12,9.90
2017,07,10,06,13,10.00
2017,07,10,06,14,10.00
2017,07,10,06,15,10.00
2017,07,10,06,16,10.10
2017,07,10,06,17,10.10
2017,07,10,06,18,10.10
2017,07,10,06,19,10.10
2017,07,10,06,20,10.20
2017,07,10,06,21,10.20
2017,07,10,06,22,10.20
2017,07,10,06,23,10.30
2017,07,10,06,24,10.30
2017,07,10,06,25,10.30
2017,07,10,06,26,10.30
2017,07,10,06,27,10.40
2017,07,10,06,28,10.40
2017,07,10,06,29,10.40
2017,07,10,06,30,10.40
2017,07,10,06,31,10.40
2017,07,10,06,32,10.40
2017,07,10,06,33,10.40
2017,07,10,06,34,10.40
2017,07,10,06,35,10.40
2017,07,10,06,36,10.50
2017,07,10,06,37,10.50
2017,07,10,06,38,10.60
2017,07,10,06,39,10.60
2017,07,10,06,40,10.70
2017,07,10,06,41,10.70
2017,07,10,06,42,10.70
2017,07,10,06,43,10.70
2017,07,10,06,44,10.70
2017,07,10,06,45,10.70
2017,07,10,06,46,10.80
2017,07,10,06,47,10.80
2017,07,10,06,48,10.80
2017,07,10,06,49,10.90
2017,07,10,06,50,10.90
2017,07,10,06,51,10.90
2017,07,10,06,52,11.00
2017,07,10,06,53,11.00
2017,07,10,06,54,11.10
2017,07,10,06,55,11.10
2017,07,10,06,56,11.10
2017,07,10,06,57,11.20
2017,07,10,06,58,11.20
2017,07,10,06,59,11.20
2017,07,10,07,00,11.30
2017,07,10,07,01,11.30
2017,07,10,07,02,11.40
2017,07,10,07,03,11.40
2017,07,10,07,04,11.40
2017,07,10,07,05,11.50
2017,07,10,07,06,11.50
2017,07,10,07,07,11.60
2017,07,10,07,08,11.60
2017,07,10,07,09,11.70
2017,07,10,07,10,11.70
2017,07,10,07,11,11.70
2017,07,10,07,12,11.80
2017,07,10,07,13,11.80
2017,07,10,07,14,11.80
2017,07,10,07,15,11.80
2017,07,10,07,16,11.90
2017,07,10,07,17,11.90
2017,07,10,07,18,12.00
2017,07,10,07,19,12.00
2017,07,10,07,20,12.10
2017,07,10,07,21,12.10
2017,07,10,07,22,12.20
2017,07,10,07,23,12.20
2017,07,10,07,24,12.20
2017,07,10,07,25,12.30
2017,07,10,07,26,12.30
2017,07,10,07,27,12.30
2017,07,10,07,28,12.30
2017,07,10,07,29,12.40
2017,07,10,07,30,12.40
2017,07,10,07,31,12.40
2017,07,10,07,32,12.40
2017,07,10,07,33,12.40
2017,07,10,07,34,12.50
2017,07,10,07,35,12.50
2017,07,10,07,36,12.50
2017,07,10,07,37,12.50
2017,07,10,07,38,12.60
2017,07,10,07,39,12.60
2017,07,10,07,40,12.60
2017,07,10,07,41,12.60
2017,07,10,07,42,12.60
2017,07,10,07,43,12.70
2017,07,10,07,44,12.70
2017,07,10,07,45,12.70
2017,07,10,07,46,12.70
2017,07,10,07,47,12.70
2017,07,10,07,48,12.80
2017,07,10,07,49,12.80
2017,07,10,07,50,12.80
2017,07,10,07,51,12.80
2017,07,10,07,52,12.90
2017,07,10,07,53,12.90
2017,07,10,07,54,12.90
2017,07,10,07,55,12.90
2017,07,10,07,56,12.90
2017,07,10,07,57,12.90
2017,07,10,07,58,12.90
2017,07,10,07,59,12.90
2017,07,10,08,00,12.90
2017,07,10,08,01,13.00
2017,07,10,08,02,13.00
2017,07,10,08,03,13.00
2017,07,10,08,04,13.00
2017,07,10,08,05,13.00
2017,07,10,08,06,13.00
2017,07,10,08,07,13.10
2017,07,10,08,08,13.10
2017,07,10,08,09,13.10
2017,07,10,08,10,13.10
2017,07,10,08,11,13.10
2017,07,10,08,12,13.10
2017,07,10,08,13,13.20
2017,07,10,08,14,13.20
2017,07,10,08,15,13.20
2017,07,10,08,16,13.20
2017,07,10,08,17,13.20
2017,07,10,08,18,13.30
2017,07,10,08,19,13.30
2017,07,10,08,20,13.30
2017,07,10,08,21,13.30
2017,07,10,08,22,13.30
2017,07,10,08,23,13.30
2017,07,10,08,24,13.30
2017,07,10,08,25,13.30
2017,07,10,08,26,13.30
2017,07,10,08,27,13.30
2017,07,10,08,28,13.30
2017,07,10,08,29,13.30
2017,07,10,08,30,13.30
2017,07,10,08,31,13.30
2017,07,10,08,32,13.30
2017,07,10,08,33,13.30
2017,07,10,08,34,13.40
2017,07,10,08,35,13.40
2017,07,10,08,36,13.40
2017,07,10,08,37,13.40
2017,07,10,08,38,13.40
2017,07,10,08,39,13.40
2017,07,10,08,40,13.40
2017,07,10,08,41,13.50
2017,07,10,08,42,13.50
2017,07,10,08,43,13.50
2017,07,10,08,44,13.50
2017,07,10,08,45,13.50
2017,07,10,08,46,13.50
2017,07,10,08,47,13.50
2017,07,10,08,48,13.50
2017,07,10,08,49,13.50
2017,07,10,08,50,13.50
2017,07,10,08,51,13.50
2017,07,10,08,52,13.50
2017,07,10,08,53,13.40
2017,07,10,08,54,13.40
2017,07,10,08,55,13.40
2017,07,10,08,56,13.40
2017,07,10,08,57,13.40
2017,07,10,08,58,13.40
2017,07,10,08,59,13.30
2017,07,10,09,00,13.30
2017,07,10,09,01,13.30
2017,07,10,09,02,13.30
2017,07,10,09,03,13.30
2017,07,10,09,04,13.30
2017,07,10,09,05,13.30
2017,07,10,09,06,13.30
2017,07,10,09,07,13.30
2017,07,10,09,08,13.30
2017,07,10,09,09,13.20
2017,07,10,09,10,13.20
2017,07,10,09,11,13.20
2017,07,10,09,12,13.20
2017,07,10,09,13,13.20
2017,07,10,09,14,13.20
2017,07,10,09,15,13.20
2017,07,10,09,16,13.20
2017,07,10,09,17,13.20
2017,07,10,09,18,13.20
2017,07,10,09,19,13.20
2017,07,10,09,20,13.20
2017,07,10,09,21,13.20
2017,07,10,09,22,13.20
2017,07,10,09,23,13.20
2017,07,10,09,24,13.30
2017,07,10,09,25,13.30
2017,07,10,09,26,13.30
2017,07,10,09,27,13.30
2017,07,10,09,28,13.30
2017,07,10,09,29,13.30
2017,07,10,09,30,13.30
2017,07,10,09,31,13.30
2017,07,10,09,32,13.30
2017,07,10,09,33,13.30
2017,07,10,09,34,13.30
2017,07,10,09,35,13.30
2017,07,10,09,36,13.30
2017,07,10,09,37,13.30
2017,07,10,09,38,13.30
2017,07,10,09,39,13.30
2017,07,10,09,40,13.30
2017,07,10,09,41,13.30
2017,07,10,09,42,13.30
2017,07,10,09,43,13.30
2017,07,10,09,44,13.30
2017,07,10,09,45,13.30
2017,07,10,09,46,13.40
2017,07,10,09,47,13.40
2017,07,10,09,48,13.40
2017,07,10,09,49,13.50
2017,07,10,09,50,13.50
2017,07,10,09,51,13.60
2017,07,10,09,52,13.60
2017,07,10,09,53,13.60
2017,07,10,09,54,13.70
2017,07,10,09,55,13.70
2017,07,10,09,56,13.70
2017,07,10,09,57,13.70
2017,07,10,09,58,13.80
2017,07,10,09,59,13.80
2017,07,10,10,00,13.80
2017,07,10,10,01,13.70
2017,07,10,10,02,13.70
2017,07,10,10,03,13.70
2017,07,10,10,04,13.70
2017,07,10,10,05,13.70
2017,07,10,10,06,13.60
2017,07,10,10,07,13.70
2017,07,10,10,08,13.70
2017,07,10,10,09,13.70
2017,07,10,10,10,13.70
2017,07,10,10,11,13.70
2017,07,10,10,12,13.70
2017,07,10,10,13,13.70
2017,07,10,10,14,13.70
2017,07,10,10,15,13.80
2017,07,10,10,16,13.80
2017,07,10,10,17,13.80
2017,07,10,10,18,13.80
2017,07,10,10,19,13.80
2017,07,10,10,20,13.80
2017,07,10,10,21,13.90
2017,07,10,10,22,13.90
2017,07,10,10,23,13.90
2017,07,10,10,24,13.90
2017,07,10,10,25,13.90
2017,07,10,10,26,13.90
2017,07,10,10,27,13.90
2017,07,10,10,28,13.90
2017,07,10,10,29,13.90
2017,07,10,10,30,13.90
2017,07,10,10,31,13.90
2017,07,10,10,32,13.90
2017,07,10,10,33,13.90
2017,07,10,10,34,13.90
2017,07,10,10,35,13.90
2017,07,10,10,36,13.90
2017,07,10,10,37,14.00
2017,07,10,10,38,14.00
2017,07,10,10,39,14.00
2017,07,10,10,40,14.10
2017,07,10,10,41,14.10
2017,07,10,10,42,14.10
2017,07,10,10,43,14.10
2017,07,10,10,44,14.20
2017,07,10,10,45,14.20
2017,07,10,10,46,14.20
2017,07,10,10,47,14.20
2017,07,10,10,48,14.20
2017,07,10,10,49,14.30
2017,07,10,10,50,14.30
2017,07,10,10,51,14.30
2017,07,10,10,52,14.30
2017,07,10,10,53,14.40
2017,07,10,10,54,14.40
2017,07,10,10,55,14.50
2017,07,10,10,56,14.50
2017,07,10,10,57,14.60
2017,07,10,10,58,14.60
2017,07,10,10,59,14.60
2017,07,10,11,00,14.60
2017,07,10,11,01,14.60
2017,07,10,11,02,14.60
2017,07,10,11,03,14.60
2017,07,10,11,04,14.60
2017,07,10,11,05,14.60
2017,07,10,11,06,14.60
2017,07,10,11,07,14.60
2017,07,10,11,08,14.60
2017,07,10,11,09,14.60
2017,07,10,11,10,14.60
2017,07,10,11,11,14.60
2017,07,10,11,12,14.70
2017,07,10,11,13,14.70
2017,07,10,11,14,14.70
2017,07,10,11,15,14.80
2017,07,10,11,16,14.80
2017,07,10,11,17,14.80
2017,07,10,11,18,14.90
2017,07,10,11,19,14.90
2017,07,10,11,20,15.00
2017,07,10,11,21,15.10
2017,07,10,11,22,15.10
2017,07,10,11,23,15.20
2017,07,10,11,24,15.20
2017,07,10,11,25,15.30
2017,07,10,11,26,15.30
2017,07,10,11,27,15.30
2017,07,10,11,28,15.30
2017,07,10,11,29,15.30
2017,07,10,11,30,15.30
2017,07,10,11,31,15.30
2017,07,10,11,32,15.30
2017,07,10,11,33,15.30
2017,07,10,11,34,15.30
2017,07,10,11,35,15.30
2017,07,10,11,36,15.30
2017,07,10,11,37,15.30
2017,07,10,11,38,15.30
2017,07,10,11,39,15.30
2017,07,10,11,40,15.30
2017,07,10,11,41,15.30
2017,07,10,11,42,15.30
2017,07,10,11,43,15.30
2017,07,10,11,44,15.30
2017,07,10,11,45,15.30
2017,07,10,11,46,15.40
2017,07,10,11,47,15.40
2017,07,10,11,48,15.40
2017,07,10,11,49,15.40
2017,07,10,11,50,15.40
2017,07,10,11,51,15.40
2017,07,10,11,52,15.40
2017,07,10,11,53,15.30
2017,07,10,11,54,15.30
2017,07,10,11,55,15.30
2017,07,10,11,56,15.30
2017,07,10,11,57,15.30
2017,07,10,11,58,15.30
2017,07,10,11,59,15.30
2017,07,10,12,00,15.30
2017,07,10,12,01,15.30
2017,07,10,12,02,15.20
2017,07,10,12,03,15.20
2017,07,10,12,04,15.20
2017,07,10,12,05,15.20
2017,07,10,12,06,15.20
2017,07,10,12,07,15.20
2017,07,10,12,08,15.20
2017,07,10,12,09,15.20
2017,07,10,12,10,15.20
2017,07,10,12,11,15.30
2017,07,10,12,12,15.30
2017,07,10,12,13,15.30
2017,07,10,12,14,15.30
2017,07,10,12,15,15.40
2017,07,10,12,16,15.40
2017,07,10,12,17,15.50
2017,07,10,12,18,15.60
2017,07,10,12,19,15.60
2017,07,10,12,20,15.70
2017,07,10,12,21,15.70
2017,07,10,12,22,15.80
2017,07,10,12,23,15.80
2017,07,10,12,24,15.90
2017,07,10,12,25,15.90
2017,07,10,12,26,16.00
2017,07,10,12,27,16.00
2017,07,10,12,28,16.10
2017,07,10,12,29,16.10
2017,07,10,12,30,16.20
2017,07,10,12,31,16.30
2017,07,10,12,32,16.40
2017,07,10,12,33,16.50
2017,07,10,12,34,16.60
2017,07,10,12,35,16.60
2017,07,10,12,36,16.60
2017,07,10,12,37,16.60
2017,07,10,12,38,16.70
2017,07,10,12,39,16.70
2017,07,10,12,40,16.70
2017,07,10,12,41,16.70
2017,07,10,12,42,16.80
2017,07,10,12,43,16.80
2017,07,10,12,44,16.90
2017,07,10,12,45,16.90
2017,07,10,12,46,16.90
2017,07,10,12,47,17.00
2017,07,10,12,48,17.00
2017,07,10,12,49,17.10
2017,07,10,12,50,17.10
2017,07,10,12,51,17.10
2017,07,10,12,52,17.20
2017,07,10,12,53,17.20
2017,07,10,12,54,17.30
2017,07,10,12,55,17.30
2017,07,10,12,56,17.30
2017,07,10,12,57,17.40
2017,07,10,12,58,17.40
2017,07,10,12,59,17.50
2017,07,10,13,00,17.50
2017,07,10,13,01,17.50
2017,07,10,13,02,17.50
2017,07,10,13,03,17.50
2017,07,10,13,04,17.50
2017,07,10,13,05,17.50
2017,07,10,13,06,17.50
2017,07,10,13,07,17.50
2017,07,10,13,08,17.50
2017,07,10,13,09,17.50
2017,07,10,13,10,17.50
2017,07,10,13,11,17.50
2017,07,10,13,12,17.50
2017,07,10,13,13,17.50
2017,07,10,13,14,17.50
2017,07,10,13,15,17.50
2017,07,10,13,16,17.50
2017,07,10,13,17,17.60
2017,07,10,13,18,17.60
2017,07,10,13,19,17.60
2017,07,10,13,20,17.60
2017,07,10,13,21,17.70
2017,07,10,13,22,17.80
2017,07,10,13,23,17.80
2017,07,10,13,24,17.80
2017,07,10,13,25,17.90
2017,07,10,13,26,18.00
2017,07,10,13,27,18.10
2017,07,10,13,28,18.20
2017,07,10,13,29,18.30
2017,07,10,13,30,18.30
2017,07,10,13,31,18.40
2017,07,10,13,32,18.40
2017,07,10,13,33,18.50
2017,07,10,13,34,18.50
2017,07,10,13,35,18.60
2017,07,10,13,36,18.60
2017,07,10,13,37,18.60
2017,07,10,13,38,18.50
2017,07,10,13,39,18.50
2017,07,10,13,40,18.50
2017,07,10,13,41,18.40
2017,07,10,13,42,18.40
2017,07,10,13,43,18.40
2017,07,10,13,44,18.40
2017,07,10,13,45,18.30
2017,07,10,13,46,18.30
2017,07,10,13,47,18.30
2017,07,10,13,48,18.30
2017,07,10,13,49,18.30
2017,07,10,13,50,18.30
2017,07,10,13,51,18.30
2017,07,10,13,52,18.30
2017,07,10,13,53,18.30
2017,07,10,13,54,18.30
2017,07,10,13,55,18.30
2017,07,10,13,56,18.30
2017,07,10,13,57,18.30
2017,07,10,13,58,18.40
2017,07,10,13,59,18.40
2017,07,10,14,00,18.40
2017,07,10,14,01,18.50
2017,07,10,14,02,18.50
2017,07,10,14,03,18.60
2017,07,10,14,04,18.60
2017,07,10,14,05,18.70
2017,07,10,14,06,18.80
2017,07,10,14,07,18.80
2017,07,10,14,08,18.80
2017,07,10,14,09,18.70
2017,07,10,14,10,18.70
2017,07,10,14,11,18.70
2017,07,10,14,12,18.60
2017,07,10,14,13,18.60
2017,07,10,14,14,18.50
2017,07,10,14,15,18.50
2017,07,10,14,16,18.50
2017,07,10,14,17,18.60
2017,07,10,14,18,18.60
2017,07,10,14,19,18.60
2017,07,10,14,20,18.60
2017,07,10,14,21,18.60
2017,07,10,14,22,18.60
2017,07,10,14,23,18.50
2017,07,10,14,24,18.50
2017,07,10,14,25,18.50
2017,07,10,14,26,18.50
2017,07,10,14,27,18.50
2017,07,10,14,28,18.60
2017,07,10,14,29,18.60
2017,07,10,14,30,18.60
2017,07,10,14,31,18.60
2017,07,10,14,32,18.60
2017,07,10,14,33,18.60
2017,07,10,14,34,18.60
2017,07,10,14,35,18.60
2017,07,10,14,36,18.60
2017,07,10,14,37,18.70
2017,07,10,14,38,18.70
2017,07,10,14,39,18.80
2017,07,10,14,40,18.80
2017,07,10,14,41,18.80
2017,07,10,14,42,18.80
2017,07,10,14,43,18.80
2017,07,10,14,44,18.80
2017,07,10,14,45,18.80
2017,07,10,14,46,18.80
2017,07,10,14,47,18.90
2017,07,10,14,48,18.80
2017,07,10,14,49,18.90
2017,07,10,14,50,18.90
2017,07,10,14,51,18.90
2017,07,10,14,52,19.00
2017,07,10,14,53,19.00
2017,07,10,14,54,19.10
2017,07,10,14,55,19.20
2017,07,10,14,56,19.20
2017,07,10,14,57,19.30
2017,07,10,14,58,19.30
2017,07,10,14,59,19.30
2017,07,10,15,00,19.30
2017,07,10,15,01,19.40
2017,07,10,15,02,19.40
2017,07,10,15,03,19.50
2017,07,10,15,04,19.60
2017,07,10,15,05,19.60
2017,07,10,15,06,19.70
2017,07,10,15,07,19.70
2017,07,10,15,08,19.70
2017,07,10,15,09,19.70
2017,07,10,15,10,19.70
2017,07,10,15,11,19.70
2017,07,10,15,12,19.70
2017,07,10,15,13,19.70
2017,07,10,15,14,19.60
2017,07,10,15,15,19.50
2017,07,10,15,16,19.50
2017,07,10,15,17,19.60
2017,07,10,15,18,19.60
2017,07,10,15,19,19.60
2017,07,10,15,20,19.60
2017,07,10,15,21,19.60
2017,07,10,15,22,19.60
2017,07,10,15,23,19.60
2017,07,10,15,24,19.70
2017,07,10,15,25,19.70
2017,07,10,15,26,19.70
2017,07,10,15,27,19.70
2017,07,10,15,28,19.80
2017,07,10,15,29,19.90
2017,07,10,15,30,19.90
2017,07,10,15,31,20.00
2017,07,10,15,32,20.10
2017,07,10,15,33,20.10
2017,07,10,15,34,20.10
2017,07,10,15,35,20.10
2017,07,10,15,36,20.10
2017,07,10,15,37,20.10
2017,07,10,15,38,20.00
2017,07,10,15,39,20.10
2017,07,10,15,40,20.00
2017,07,10,15,41,20.00
2017,07,10,15,42,20.00
2017,07,10,15,43,19.90
2017,07,10,15,44,19.90
2017,07,10,15,45,20.00
2017,07,10,15,46,20.00
2017,07,10,15,47,20.00
2017,07,10,15,48,20.00
2017,07,10,15,49,19.90
2017,07,10,15,50,19.90
2017,07,10,15,51,20.00
2017,07,10,15,52,20.00
2017,07,10,15,53,20.10
2017,07,10,15,54,20.10
2017,07,10,15,55,20.10
2017,07,10,15,56,20.00
2017,07,10,15,57,20.00
2017,07,10,15,58,20.00
2017,07,10,15,59,20.10
2017,07,10,16,00,20.20
2017,07,10,16,01,20.30
2017,07,10,16,02,20.30
2017,07,10,16,03,20.30
2017,07,10,16,04,20.30
2017,07,10,16,05,20.40
2017,07,10,16,06,20.40
2017,07,10,16,07,20.50
2017,07,10,16,08,20.50
2017,07,10,16,09,20.50
2017,07,10,16,10,20.50
2017,07,10,16,11,20.50
2017,07,10,16,12,20.40
2017,07,10,16,13,20.40
2017,07,10,16,14,20.30
2017,07,10,16,15,20.30
2017,07,10,16,16,20.30
2017,07,10,16,17,20.30
2017,07,10,16,18,20.30
2017,07,10,16,19,20.30
2017,07,10,16,20,20.30
2017,07,10,16,21,20.30
2017,07,10,16,22,20.30
2017,07,10,16,23,20.30
2017,07,10,16,24,20.30
2017,07,10,16,25,20.30
2017,07,10,16,26,20.30
2017,07,10,16,27,20.30
2017,07,10,16,28,20.30
2017,07,10,16,29,20.30
2017,07,10,16,30,20.20
2017,07,10,16,31,20.10
2017,07,10,16,32,20.10
2017,07,10,16,33,20.20
2017,07,10,16,34,20.20
2017,07,10,16,35,20.20
2017,07,10,16,36,20.20
2017,07,10,16,37,20.20
2017,07,10,16,38,20.20
2017,07,10,16,39,20.20
2017,07,10,16,40,20.20
2017,07,10,16,41,20.20
2017,07,10,16,42,20.20
2017,07,10,16,43,20.20
2017,07,10,16,44,20.20
2017,07,10,16,45,20.20
2017,07,10,16,46,20.10
2017,07,10,16,47,20.10
2017,07,10,16,48,20.10
2017,07,10,16,49,20.10
2017,07,10,16,50,20.20
2017,07,10,16,51,20.20
2017,07,10,16,52,20.20
2017,07,10,16,53,20.20
2017,07,10,16,54,20.10
2017,07,10,16,55,20.10
2017,07,10,16,56,20.20
2017,07,10,16,57,20.20
2017,07,10,16,58,20.20
2017,07,10,16,59,20.10
2017,07,10,17,00,20.10
2017,07,10,17,01,20.00
2017,07,10,17,02,19.90
2017,07,10,17,03,19.90
2017,07,10,17,04,19.80
2017,07,10,17,05,19.70
2017,07,10,17,06,19.70
2017,07,10,17,07,19.70
2017,07,10,17,08,19.70
2017,07,10,17,09,19.70
2017,07,10,17,10,19.80
2017,07,10,17,11,19.70
2017,07,10,17,12,19.80
2017,07,10,17,13,19.80
2017,07,10,17,14,19.80
2017,07,10,17,15,19.80
2017,07,10,17,16,19.80
2017,07,10,17,17,19.80
2017,07,10,17,18,19.80
2017,07,10,17,19,19.80
2017,07,10,17,20,19.80
2017,07,10,17,21,19.80
2017,07,10,17,22,19.80
2017,07,10,17,23,19.90
2017,07,10,17,24,19.90
2017,07,10,17,25,19.90
2017,07,10,17,26,19.90
2017,07,10,17,27,19.90
2017,07,10,17,28,19.90
2017,07,10,17,29,19.90
2017,07,10,17,30,19.90
2017,07,10,17,31,19.90